Regional Weather Roundup
Issued by NWS

Home | Current Version | Previous Version | Graphics & Text | Print | Product List | Glossary On
Versions: 1 2 3 4 5 6 7 8 9 10 11 12 13 14 15 16 17 18 19 20 21 22 23 24 25 26 27 28 29 30 31 32 33 34 35 36 37 38 39 40 41 42 43 44 45 46 47 48 49 50
000
ASUS43 KDTX 250601
RWRMI
MICHIGAN HOURLY REGIONAL WEATHER ROUNDUP
NATIONAL WEATHER SERVICE DETROIT/PONTIAC MI
200 AM EDT TUE JUL 25 2017

NOTE: "FAIR" INDICATES FEW OR NO CLOUDS BELOW 12,000 FEET WITH NO
SIGNIFICANT WEATHER AND/OR OBSTRUCTION TO VISIBILITY.

MIZ047>049-052>055-059>063-066>070-074>076-081>083-250700-
SOUTHEAST LOWER MICHIGAN

CITY           SKY/WX    TMP DP  RH WIND       PRES   REMARKS
ADRIAN         CLEAR     55  53  93 W3        30.15R
6HR MIN TEMP:  55; 6HR MAX TEMP:  72;

ALMA           CLEAR     54  52  94 CALM      30.16R
ANN ARBOR      CLEAR     50  49  96 CALM      30.14R
BAD AXE        CLEAR     51  51  99 CALM      30.15R
6HR MIN TEMP:  50; 6HR MAX TEMP:  65;

CARO           CLEAR     51  49  95 CALM      30.14R
DETROIT CITY   CLEAR     61  53  75 CALM      30.13R
6HR MIN TEMP:  61; 6HR MAX TEMP:  71;

DETROIT        PTCLDY    60  53  77 N5        30.15R
6HR MIN TEMP:  60; 6HR MAX TEMP:  72;

FLINT          CLEAR     54  51  90 CALM      30.15R
6HR MIN TEMP:  52; 6HR MAX TEMP:  70;

GROSSE ILE     CLEAR     64  52  66 N6        30.13R
6HR MIN TEMP:  63; 6HR MAX TEMP:  72;

HILLSDALE      CLEAR     54  50  87 CALM      30.16R
HOWELL         CLEAR     55  53  95 CALM      30.15S
6HR MIN TEMP:  55; 6HR MAX TEMP:  70;


CITY           SKY/WX    TMP DP  RH WIND       PRES   REMARKS
JACKSON        CLEAR     56  53  90 SW3       30.16R
6HR MIN TEMP:  56; 6HR MAX TEMP:  72;

LAMBERTVILLE   CLEAR     54  52  93 CALM      30.13S
6HR MIN TEMP:  54; 6HR MAX TEMP:  69;

LANSING        CLEAR     59  53  80 CALM      30.16R
6HR MIN TEMP:  59; 6HR MAX TEMP:  72;

LAPEER         FAIR      53  52  97 CALM      30.15S
6HR MIN TEMP:  53; 6HR MAX TEMP:  67;

MASON          CLEAR     56  54  95 CALM      30.16R
MONROE         CLEAR     56  53  91 N3        30.13R
6HR MIN TEMP:  55; 6HR MAX TEMP:  71;

MT. CLEMENS    CLEAR     59  54  85 NW5       30.11S
6HR MIN TEMP:  58; 6HR MAX TEMP:  68;

PONTIAC        CLEAR     59  53  80 N5        30.13R
6HR MIN TEMP:  59; 6HR MAX TEMP:  70;

PORT HOPE        N/A     66  55  67 N9        30.13R
6HR MIN TEMP:  64; 6HR MAX TEMP:  67;

PORT HURON     CLEAR     59  54  82 W3        30.13R
TRI CITIES     CLEAR     60  54  80 CALM      30.16R
6HR MIN TEMP:  60; 6HR MAX TEMP:  71;

MIDLAND        FAIR      53  53  99 CALM      30.15R
6HR MIN TEMP:  53; 6HR MAX TEMP:  71;

TROY           CLEAR     61  51  69 N5        30.15S
SAGINAW HB     CLEAR     55  52  88 CALM      30.14S
$$
MIZ043>046-050>051-056>058-064>065-071>073-077>080-250700-
SOUTHWEST LOWER MICHIGAN

CITY           SKY/WX    TMP DP  RH WIND       PRES   REMARKS
BATTLE CREEK   CLEAR     60  57  89 CALM      30.16R
6HR MIN TEMP:  58; 6HR MAX TEMP:  74;

BENTON HARBOR  CLEAR     60  57  89 CALM      30.13R
6HR MIN TEMP:  60; 6HR MAX TEMP:  71;

BIG RAPIDS     CLEAR     58  54  88 CALM      30.16R
6HR MIN TEMP:  58; 6HR MAX TEMP:  74;

COLDWATER      CLEAR     57  57 100 CALM      30.16R
6HR MIN TEMP:  57; 6HR MAX TEMP:  71;

FREMONT        FAIR      61  56  83 E6        30.14R
HOLLAND        CLEAR     58  56  93 CALM      30.14R
6HR MIN TEMP:  58; 6HR MAX TEMP:  72;

GRAND RAPIDS   CLEAR     61  58  90 E3        30.14R
6HR MIN TEMP:  60; 6HR MAX TEMP:  76;

IONIA          FAIR      58  56  92 E3        30.15R
6HR MIN TEMP:  58; 6HR MAX TEMP:  73;

KALAMAZOO      CLEAR     60  56  86 CALM      30.15R
6HR MIN TEMP:  59; 6HR MAX TEMP:  75;

LUDINGTON      PTCLDY    52  52  99 CALM      30.14R
6HR MIN TEMP:  52; 6HR MAX TEMP:  68;

MARSHALL       CLEAR     57  56  97 CALM      30.15R
6HR MIN TEMP:  56; 6HR MAX TEMP:  72;

MOUNT PLEASANT CLEAR     58  55  91 CALM      30.15R
6HR MIN TEMP:  57; 6HR MAX TEMP:  76;

MUSKEGON         N/A     63  55  75 N3        30.13R
6HR MIN TEMP:  63; 6HR MAX TEMP:  73;

SOUTH HAVEN    CLEAR     59  58  98 CALM      30.14R
$$
MIZ016>042-250700-
NORTHERN LOWER MICHIGAN

CITY           SKY/WX    TMP DP  RH WIND       PRES   REMARKS
ALPENA         CLEAR     54  53  97 CALM      30.15S
6HR MIN TEMP:  54; 6HR MAX TEMP:  73;

BELLAIRE       CLEAR     48  46  93 CALM      30.16R
6HR MIN TEMP:  48; 6HR MAX TEMP:  71;

CADILLAC       CLEAR     51  48  88 CALM      30.17R
CHARLEVOIX     CLEAR     57  57 100 SE3       30.18R
FRANKFORT      CLEAR     51  50  98 CALM      30.14S
GAYLORD        CLEAR     52  47  83 CALM      30.17R
6HR MIN TEMP:  51; 6HR MAX TEMP:  72;

GRAYLING       FOG       46  44  94 CALM      30.17S VSB 1
6HR MIN TEMP:  46; 6HR MAX TEMP:  71;

HARBOR SPRINGS CLEAR     55  52  91 NE6       30.16R
HOUGHTON LAKE  CLEAR     51  50  96 CALM      30.17R
6HR MIN TEMP:  51; 6HR MAX TEMP:  72;

MANISTEE       CLEAR     54  52  93 E5        30.14R
OSCODA         CLEAR     53  51  92 W9        30.14S
6HR MIN TEMP:  53; 6HR MAX TEMP:  70;

PELLSTON       CLEAR     49  48  97 CALM      30.16R
6HR MIN TEMP:  49; 6HR MAX TEMP:  72;

ROGERS CITY    CLEAR     57  54  88 W3        30.15S
TRAVERSE CITY  CLEAR     55  51  86 CALM      30.14R
6HR MIN TEMP:  54; 6HR MAX TEMP:  72;

$$
MIZ007>008-015-250700-
EASTERN UPPER MICHIGAN

CITY           SKY/WX    TMP DP  RH WIND       PRES   REMARKS
KINROSS        CLEAR     54  50  86 NW5       30.15S
6HR MIN TEMP:  53; 6HR MAX TEMP:  66;

MACKINAC ISLAN CLEAR     56  56  98 N6        30.15S
6HR MIN TEMP:  55; 6HR MAX TEMP:  69;

NEWBERRY       CLEAR     48  47  97 CALM      30.15S
6HR MIN TEMP:  48; 6HR MAX TEMP:  64;

S. S. MARIE    CLEAR     56  52  86 CALM      30.14R
6HR MIN TEMP:  55; 6HR MAX TEMP:  67;

MUNISING         N/A     54  52  93 S6        30.13R
6HR MIN TEMP:  54; 6HR MAX TEMP:  67;

$$
MIZ004>006-011>014-085-250700-
CENTRAL UPPER MICHIGAN

CITY           SKY/WX    TMP DP  RH WIND       PRES   REMARKS
MANISTIQUE     CLEAR     51  47  89 CALM      30.14S
6HR MIN TEMP:  50; 6HR MAX TEMP:  67;

ESCANABA       CLEAR     55  55 100 W3        30.14R
6HR MIN TEMP:  53; 6HR MAX TEMP:  71;

MENOMINEE      CLEAR     58  56  93 CALM      30.14S
6HR MIN TEMP:  57; 6HR MAX TEMP:  74;

SAWYER-GWINN   CLEAR     55  52  88 S5        30.14S
6HR MIN TEMP:  55; 6HR MAX TEMP:  71;

$$
MIZ001>003-009>011-084-250700-
WESTERN UPPER MICHIGAN

CITY           SKY/WX    TMP DP  RH WIND       PRES   REMARKS
IRON MOUNTAIN  CLEAR     58  53  84 CALM      30.13R
6HR MIN TEMP:  58; 6HR MAX TEMP:  76;

HOUGHTON       CLEAR     59  51  75 E5        30.09S
6HR MIN TEMP:  58; 6HR MAX TEMP:  73;

COPPER HARBOR    N/A     62  50  64 SW9       30.08S
6HR MIN TEMP:  61; 6HR MAX TEMP:  66;

IRONWOOD       PTCLDY    63  56  78 S5        30.10R
6HR MIN TEMP:  57; 6HR MAX TEMP:  72;

$$

ABBREVIATIONS USED IN REMARKS
   TC - TEMPERATURE IN CELSIUS
  WCI - WIND CHILL INDEX
   HX - HEAT INDEX
  VSB - VISIBILITY





USA.gov is the U.S. government's official web portal to all federal, state and local government web resources and services.